TimePDT,TemperatureF,Dew PointF,Humidity,Sea Level PressureIn,VisibilityMPH,Wind Direction,Wind SpeedMPH,Gust SpeedMPH,PrecipitationIn,Events,Conditions,WindDirDegrees,DateUTC
12:53 AM,70.0,52.0,53,30.01,10.0,NW,17.3,25.3,N/A,,Clear,320,2013-07-19 07:53:00
1:53 AM,68.0,51.1,55,30.02,10.0,NNW,13.8,-,N/A,,Clear,330,2013-07-19 08:53:00
2:53 AM,64.0,50.0,60,30.02,10.0,NE,3.5,-,N/A,,Clear,50,2013-07-19 09:53:00
3:53 AM,59.0,48.9,69,30.03,10.0,NE,3.5,-,N/A,,Clear,50,2013-07-19 10:53:00
4:53 AM,60.1,48.9,67,30.03,10.0,Calm,Calm,-,N/A,,Clear,0,2013-07-19 11:53:00
5:53 AM,55.9,48.9,77,30.04,10.0,Calm,Calm,-,N/A,,Clear,0,2013-07-19 12:53:00
6:53 AM,63.0,50.0,63,30.05,10.0,NNE,3.5,-,N/A,,Clear,20,2013-07-19 13:53:00
7:53 AM,66.9,51.1,57,30.06,10.0,East,4.6,-,N/A,,Clear,90,2013-07-19 14:53:00
8:53 AM,73.9,50.0,43,30.04,10.0,Calm,Calm,-,N/A,,Clear,0,2013-07-19 15:53:00
9:53 AM,82.0,50.0,33,30.03,10.0,Calm,Calm,-,N/A,,Clear,0,2013-07-19 16:53:00
10:53 AM,84.0,53.1,34,30.02,10.0,SSE,5.8,-,N/A,,Clear,160,2013-07-19 17:53:00
11:53 AM,90.0,46.9,23,30.00,10.0,Calm,Calm,-,N/A,,Clear,0,2013-07-19 18:53:00
12:53 PM,93.9,30.9,11,29.98,10.0,Variable,3.5,-,N/A,,Clear,0,2013-07-19 19:53:00
1:53 PM,96.1,32.0,10,29.96,10.0,Calm,Calm,-,N/A,,Clear,0,2013-07-19 20:53:00
2:53 PM,97.0,28.0,9,29.94,10.0,SW,6.9,-,N/A,,Clear,220,2013-07-19 21:53:00
3:53 PM,99.0,37.0,12,29.93,10.0,West,12.7,-,N/A,,Clear,260,2013-07-19 22:53:00
4:53 PM,97.0,37.0,12,29.91,10.0,WNW,15.0,23.0,N/A,,Clear,290,2013-07-19 23:53:00
5:53 PM,93.0,41.0,16,29.90,10.0,NW,21.9,29.9,N/A,,Clear,310,2013-07-20 00:53:00
6:53 PM,89.1,39.0,17,29.90,10.0,NW,21.9,29.9,N/A,,Clear,320,2013-07-20 01:53:00
7:53 PM,84.9,46.9,27,29.91,10.0,NW,21.9,31.1,N/A,,Clear,320,2013-07-20 02:53:00
8:53 PM,80.1,50.0,35,29.93,10.0,NW,19.6,28.8,N/A,,Clear,310,2013-07-20 03:53:00
9:53 PM,78.1,52.0,40,29.94,10.0,NNW,17.3,26.5,N/A,,Clear,330,2013-07-20 04:53:00
10:53 PM,73.9,54.0,50,29.94,10.0,NW,17.3,23.0,N/A,,Clear,320,2013-07-20 05:53:00
11:53 PM,72.0,54.0,53,29.93,10.0,NW,18.4,27.6,N/A,,Clear,320,2013-07-20 06:53:00